Location: Caltech
(34.1382°N, 118.1253°W)
Time: 08:33:58
(UTC-08:00)

Meteor 2-4 Rocket - Visible Passes

Search period start: 05 December 2016 00:00
Search period end: 15 December 2016 00:00
Orbit: 798 x 910 km, 81.2° (Epoch: 04 December)

Date Brightness Start Highest point End Pass type
(mag) Time Alt. Az. Time Alt. Az. Time Alt. Az.
05 Dec 6.5 04:29:29 10° NE 04:31:53 13° ENE 04:34:18 10° E visible
05 Dec 3.7 06:09:49 10° NNW 06:15:17 67° W 06:20:55 10° S visible
05 Dec 4.9 17:34:41 10° SE 17:38:26 19° E 17:40:40 15° ENE visible
05 Dec 4.8 19:16:01 10° SSW 19:21:02 39° WNW 19:22:49 31° NW visible
06 Dec 6.5 04:18:50 10° NE 04:20:49 12° ENE 04:22:49 10° E visible
06 Dec 3.7 05:58:46 10° NNW 06:04:17 72° W 06:09:57 10° S visible
06 Dec 5.0 17:23:55 10° SE 17:27:26 18° E 17:30:53 10° NE visible
06 Dec 4.7 19:04:55 10° SSW 19:10:00 42° WNW 19:13:03 22° NNW visible
07 Dec 6.6 04:08:19 10° NE 04:09:46 11° ENE 04:11:12 10° E visible
07 Dec 3.7 05:47:43 10° NNW 05:53:17 77° W 05:58:58 10° S visible
07 Dec 5.0 17:13:10 10° SE 17:16:27 17° E 17:19:43 10° NE visible
07 Dec 4.5 18:53:49 10° SSW 18:58:58 46° WNW 19:03:13 15° N visible
08 Dec 6.7 03:58:19 10° ENE 03:58:42 10° ENE 03:59:04 10° ENE visible
08 Dec 3.7 05:36:41 10° N 05:42:16 83° W 05:47:59 10° S visible
08 Dec 4.4 18:42:44 10° SSW 18:47:56 49° W 18:53:07 10° N visible
09 Dec 3.7 05:25:40 10° N 05:31:16 88° W 05:37:00 10° S visible
09 Dec 4.3 18:31:40 10° SSW 18:36:54 53° W 18:42:08 10° N visible
10 Dec 3.7 05:14:38 10° N 05:20:15 86° E 05:26:00 10° S visible
10 Dec 4.2 18:20:36 10° SSW 18:25:52 57° W 18:31:08 10° N visible
11 Dec 3.8 05:03:37 10° N 05:09:14 81° E 05:15:00 10° S visible
11 Dec 4.1 18:09:32 10° SSW 18:14:50 62° W 18:20:08 10° N visible
12 Dec 3.9 04:52:35 10° N 04:58:13 75° E 05:03:59 10° SSE visible
12 Dec 3.9 17:58:29 10° SSW 18:03:48 67° W 18:09:08 10° N visible
13 Dec 3.9 04:42:40 16° N 04:47:12 70° E 04:52:59 10° SSE visible
13 Dec 3.8 17:47:27 10° SSW 17:52:46 72° W 17:58:07 10° N visible
14 Dec 4.0 04:32:55 26° N 04:36:12 66° E 04:41:57 10° SSE visible
14 Dec 5.4 06:16:05 10° WNW 06:18:32 13° W 06:21:01 10° WSW visible
14 Dec 3.8 17:36:24 10° SSW 17:41:45 78° W 17:47:07 10° N visible
